User: anonymous   Login
Location: Kervinic
(48.4279°N, 4.7373°W)
Time: 00:36:52
(UTC+00:00)
Language:

Mayak - Orbit

View from above orbital plane
View from above orbital plane
View from above satellite
View from above satellite

Ground track
Ground track

The orbit data is extracted from the following two-line orbital elements,

1 42830U 17042F   20188.60724041  .00000474  00000-0  51608-4 0  9993
2 42830  97.5257  70.9772 0013052 210.1239 149.9231 14.92254217162213
Epoch (UTC): 06 July 2020 14:34:25
Eccentricity: 0.0013052
inclination: 97.5257°
perigee height: 582 km
apogee height: 600 km
right ascension of ascending node: 70.9772°
argument of perigee: 210.1239°
revolutions per day: 14.92254217
mean anomaly at epoch: 149.9231°
orbit number at epoch: 16221

The dashed part of the orbit path shows where the satellite is in the earth's shadow,  

DLR